Location: Antioch Baptist Church
(32.6696°N, 85.7327°W)
Time: 12:18:37
(UTC+00:00)

Hubble Space Telescope - Pass Details

Date: 14 July 2020
Orbit: 536 x 540 km, 28.5° (Epoch: 08 August)

Event Time Altitude Azimuth Distance (km) Brightness Sun altitude
Rises 01:38:40 0° 259° (W) 2,668 5.1 -9.3°
Reaches altitude 10° 01:40:58 10° 253° (WSW) 1,778 4.0 -9.7°
Maximum altitude 01:44:56 47° 180° (S) 713 1.1 -10.4°
Enters shadow 01:48:06 15° 110° (ESE) 1,489 2.4 -11.0°
